Date,TemperatureHighF,TemperatureAvgF,TemperatureLowF,DewpointHighF,DewpointAvgF,DewpointLowF,HumidityHigh,HumidityAvg,HumidityLow,PressureMaxIn,PressureMinIn,WindSpeedMaxMPH,WindSpeedAvgMPH,GustSpeedMaxMPH,PrecipitationSumIn
2013-11-1,57,50,46,56,45,42,94,84,77,29.71,29.25,19,9,25,0.02
2013-11-2,50,46,39,45,42,36,94,87,73,30.09,29.70,11,4,13,0.01
2013-11-3,50,42,36,41,38,34,94,86,66,30.40,30.09,5,2,9,0.01
2013-11-4,52,43,32,42,37,30,96,79,56,30.42,30.28,8,3,11,0.00
2013-11-5,57,51,43,50,45,40,90,81,73,30.37,30.16,4,2,7,0.01
2013-11-6,58,53,43,53,48,40,94,83,66,30.16,29.84,13,6,20,0.15
2013-11-7,47,42,35,40,34,28,89,74,50,30.23,30.05,12,6,18,0.00
2013-11-8,46,39,30,34,31,28,93,76,54,30.35,30.18,7,3,12,0.00
2013-11-9,60,50,42,43,37,31,70,61,52,30.18,29.90,19,8,25,0.00
2013-11-10,49,42,31,39,32,27,92,69,56,30.32,30.00,13,6,16,0.00
2013-11-11,49,40,29,40,33,23,95,80,61,30.37,30.07,11,6,15,0.10
2013-11-12,34,29,22,26,22,19,87,77,65,30.62,30.37,9,5,14,0.00
2013-11-13,37,29,21,23,20,18,87,70,52,30.61,30.30,11,6,16,0.00
2013-11-14,52,40,30,26,23,21,75,54,31,30.30,30.06,11,7,19,0.00
2013-11-15,50,44,39,34,29,24,77,54,47,30.09,30.02,7,4,11,0.00
2013-11-16,58,49,39,55,46,34,94,88,77,30.08,29.79,10,4,14,0.01
2013-11-17,65,58,48,61,54,40,95,87,71,29.79,29.32,26,10,34,0.62
2013-11-18,48,41,35,40,34,28,86,76,66,30.19,29.66,17,10,21,0.00
2013-11-19,41,35,26,30,27,23,91,72,59,30.39,30.19,10,3,15,0.00
2013-11-20,44,34,23,36,28,21,93,82,64,30.41,30.22,11,3,13,0.00
2013-11-21,48,44,41,48,42,36,97,90,74,30.29,30.17,5,2,8,0.46
2013-11-22,48,42,30,48,39,26,98,89,74,30.42,30.15,14,4,18,0.05
2013-11-23,32,26,17,27,20,9,91,78,62,30.62,30.36,14,6,19,0.00
2013-11-24,26,20,14,18,14,11,89,78,66,30.70,30.51,7,3,10,0.00
2013-11-25,32,26,19,26,18,12,83,70,57,30.51,30.18,11,5,15,0.00
2013-11-26,36,32,29,29,26,24,88,81,72,30.18,29.97,10,4,14,0.00
2013-11-27,30,26,24,24,19,15,88,74,57,30.27,29.99,11,6,17,0.00
2013-11-28,31,27,24,21,18,15,84,70,56,30.46,30.27,7,3,11,0.00
2013-11-29,37,28,21,24,21,16,90,75,55,30.67,30.46,4,1,6,0.00
2013-11-30,48,36,27,32,27,22,82,70,52,30.55,30.14,8,2,12,0.00